Location: Banff
(51.1667°N, 115.5667°W)
Time: 08:54:28
(UTC+00:00)

Envisat - Pass Details

Date: 02 December 2022
Orbit: 763 x 765 km, 98.2° (Epoch: 28 January)

Event Time Altitude Azimuth Distance (km) Brightness Sun altitude
Rises 11:36:50 0° 18° (NNE) 3,247 6.5 -34.8°
Reaches altitude 10° 11:39:14 10° 24° (NNE) 2,316 5.8 -34.4°
Enters shadow 11:41:54 29° 41° (NE) 1,381 4.6 -34.0°
